sat.trackr.live / text

‹ back to catalog

STARLINK-36374

NORAD 67417 · 2026-005P

PAYLOAD ACTIVE UNKNOWN

§ Identity

Operator
Country
US
Launch date
2026-01-12
Launch site
AFETR
Launch vehicle
Mass (kg)
RCS (m²)

Purposes: comms

External: N2YO · Heavens-Above · Gunter

§ Orbital elements

Epoch: 2026-09-19T14:45:23.050368Z

Period
94.27 min
Inclination
43.0018°
Eccentricity
0.0001522
Mean motion
15.27588082 rev/d
Perigee alt
482.0 km
Apogee alt
484.1 km
Semi-major
6,861.2 km
B*
5.7567e-4
RAAN
222.9008°
Arg perigee
266.9831°
Mean anomaly
93.0846°
Rev number
3,835

§ Raw data

STARLINK-363741 67417U 26005P   26262.61485012  .00015617  00000+0  57567-3 0  99952 67417  43.0018 222.9008 0001522 266.9831  93.0846 15.27588082 38356

JSON: /api/v1/satellites/67417 · /tle

For live sub-satellite position, see the globe view (requires WebGL).

§ Visibility from observer

Set your observer location to see the next 7 days of passes ≥ 10°. The values pass through the URL so the page stays shareable.

No JS? Fill the form by hand. The geolocation button needs JavaScript.